Regional Weather Roundup
Issued by NWS

Home | Current Version | Previous Version | Graphics & Text | Print | Product List | Glossary On
Versions: 1 2 3 4 5 6 7 8 9 10 11 12 13 14 15 16 17 18 19 20 21 22 23 24 25 26 27
000
ASUS45 KSLC 240310
RWRUT

UTAH REGIONAL WEATHER ROUNDUP
NATIONAL WEATHER SERVICE SALT LAKE CITY UT
900 PM MDT MON OCT 23 2017

UTZ001>011-023>025-240400-

NORTHERN UTAH

CITY           SKY/WX    TMP DP  RH WIND       PRES   REMARKS
BRIGHAM CITY   CLEAR     52  29  41 CALM      30.64R
DUGWAY         PTCLDY    54  35  48 SW3       30.75R
HILL AFB       CLEAR     49  31  50 E5        30.63R
LOGAN          CLEAR     47  30  51 S7        30.64R
OGDEN          CLEAR     50  32  50 W5        30.62R
SALT LAKE CITY PTCLDY    56  38  50 CALM      30.62R
TOOELE VALLEY  PTCLDY    41  34  75 S5        30.63S
WENDOVER       PTCLDY    53  38  56 N6        30.64R
HEBER CITY       N/A     41  23  48 E5        30.62R
WEST JORDAN    PTCLDY    49  30  49 W7        30.63S

$$

UTZ011>015-024>027-240400-

CENTRAL/NORTHEAST UTAH

CITY           SKY/WX    TMP DP  RH WIND       PRES   REMARKS
PROVO AIRPORT  MOCLDY    50  38  63 NW9       30.61S
MOAB/CANYONLAN MOCLDY    56  27  32 W3        30.43R
DELTA          PTCLDY    52  30  43 N7        30.60R
PRICE          MOCLDY    55  27  34 NW15G24   30.53R
ROOSEVELT      CLOUDY    45  28  53 W7        30.54R
VERNAL         CLOUDY    56  17  21 NE16      30.53R

$$

UTZ013>016-019>022-027-240400-

SOUTHERN UTAH

CITY           SKY/WX    TMP DP  RH WIND       PRES   REMARKS
BRYCE CANYON   CLEAR     47  32  56 N12       30.63R
CEDAR CITY     CLEAR     54  35  48 N10       30.56R
MILFORD        CLEAR     52  35  52 N12       30.58R
ST GEORGE      MOCLDY    75  36  24 NE24G33   30.32S
HANKSVILLE     MOCLDY    61  30  31 N8        30.47R
BLANDING         N/A     55  21  26 N9        30.53S

$$

REGIONAL REPORTS     COLORADO/ARIZONA

CITY           SKY/WX    TMP DP  RH WIND       PRES   REMARKS
CRAIG, CO      CLOUDY    37  24  59 W7        30.58R WCI  32
GRAND JUNCTION CLOUDY    50  24  36 NW7       30.47R
RIFLE, CO      CLOUDY    52  22  30 N5        30.52R
MONTROSE, CO   CLOUDY    47  29  49 SE7       30.52R
CORTEZ, CO     CLOUDY    56  26  31 N5        30.46R
COLORADO CITY    N/A     61  34  36 NW6       30.46R
PAGE, AZ       CLEAR     62  32  32 CALM      30.40R
GRAND CANYON   CLOUDY    53  21  28 NE5       30.51R
KINGMAN, AZ    CLEAR     69  31  24 E7        30.30R
FLAGSTAFF, AZ  CLEAR     59  20  22 E10G20    30.51R

$$

REGIONAL REPORTS    NEVADA/IDAHO/WYOMING

CITY           SKY/WX    TMP DP  RH WIND       PRES   REMARKS
LAS VEGAS, NV  CLEAR     81  35  19 NE9       30.26R
ELY, NY        CLEAR     53  34  48 N15       30.62R
ELKO, NV       CLEAR     53  30  41 E3        30.62R
POCATELLO, ID  CLOUDY    46  33  60 S10       30.66S
BURLEY, ID     CLEAR     40  33  76 S6        30.65S
FORT BRIDGER,    N/A     41  22  47 W5        30.70R
EVANSTON, WY   CLOUDY    39  22  50 CALM      30.68R
ROCK SPRINGS,  CLOUDY    42  16  34 NW9       30.62R
KEMMERER, WY   CLOUDY    37  21  52 NW8       30.67R WCI  31

$$




USA.gov is the U.S. government's official web portal to all federal, state and local government web resources and services.